CZ-6A DEB, 54546

Orbit data source: Space-Track

CZ-6A DEB, 54546 is space debris in SSO originally from a launch on Fri, 11 Nov 2022 UTC launched from the Taiyaun Space Center, China (TSC). Debris objects in space refer to the collection of defunct objects orbiting the Earth. Examples of debris include non-operational satellites, rocket bodies, and fragments generated from explosions, collisions, or faulty payload assembly.

Loading next visibility...
Identifier
54546, 2022-151KW
Orbit
SSO
Country
Flag of CNCN / PRC
Related business
Manufacturer
SAST
Mission
Spacecraft
Bus & Motor
Unknown
Mass
Unknown
Launch date (UTC)
2022-11-11 (4 years ago)
Launch vehicle
Unknown
Launch site
Taiyaun Space Center, China (TSC)
Object type
Payload
Rocket body
Debris
Shape & HBR
Unknown shape, 0.3 m
Radar Cross Section
Medium (>0.1 m² and <1 m²)

Expand to show TLE details & history
Last TLE update: 14 hours ago

TLE from 14 hours ago
0 CZ-6A DEB
1 54546U 22151KW  26235.78000231  .00000130  00000-0  88349-4 0  9994
2 54546  98.7956 242.2037 0024358 136.7272 223.5820 14.15665927195036
Epoch: 2026-08-23T18:43Z
TLE epoch observation values (Epoch: 2026-08-23T18:43:12.199Z)
Latitude
-0.00009°
Longitude
-10.66827°
Altitude
855.713 km
Speed
7.418 km/s
True Right ascension
16h 08m 48s
True Declination
0° 00' 00"
Sunlit
Object was in daylight at epoch
Visualization orbit readout
Latitude
Unknown
Longitude
Unknown
Altitude
Unknown
Speed
Unknown
Apparent Right ascension
Unknown
Apparent Declination
Unknown
Sunlit
N/A
Visualization observer readout
Local Sidereal Time
23:53:57
Azimuth
Unknown
Elevation
Unknown
Doppler factor
Unknown
Orbital elements
Apogee altitude
854.791 km
Perigee altitude
819.641 km
Semi-major axis
7,215.353 km
Eccentricity
0.00244
Inclination
98.7956°
RAAN
242.2037°
Arg. of periapsis
136.7272°
True anomaly
223.39°
Mean anomaly
223.582°
Eccentric anomaly
223.48596°
Mean motion
3.54125 °/min
Orbital period
101.66 mins
BSTAR
0.000088349
Loading maneuver chart data...
Computing Atmospheric mass density...
Loading historical data...
Loading historical data...
Loading historical data...
Loading historical data...
Loading historical data...
Loading historical data...
Loading historical data...

Documentation

Showing up to 5 results
|